Location: Laterina
(43.5167°N, 11.7167°E)
Time: 15:03:27
(UTC+00:00)

CSL-04 Rocket - Pass Details

Date: 24 September 2020
Orbit: 806 x 860 km, 98.9° (Epoch: 25 October)

Event Time Altitude Azimuth Distance (km) Brightness Sun altitude
Rises 18:23:07 0° 172° (S) 3,364 6.6 -14.7°
Reaches altitude 10° 18:25:28 10° 174° (S) 2,442 5.9 -15.1°
Maximum altitude 18:30:52 68° 258° (WSW) 912 4.0 -16.0°
Drops below altitude 10° 18:36:22 10° 341° (NNW) 2,491 6.6 -17.0°
Sets 18:38:48 0° 344° (NNW) 3,437 7.3 -17.4°
